Location: Cobb
(38.8221°N, 122.7230°W)
Time: 18:52:51
(UTC+00:00)

Daily predictions for brighter satellites

Satellite Brightness Start Highest point End
(mag) Time Altitude Azimuth Time Altitude Azimuth Time Altitude Azimuth
BREEZE-M DEB (TANK) 3.5 12:01:50 11° WSW 12:02:46 13° SSW 12:04:22 10° S
Cosmos 1340 2.7 12:02:52 10° S 12:06:37 87° E 12:10:24 10° N
STARLINK-1034 4.1 12:03:07 10° SSW 12:07:09 54° SE 12:11:11 10° ENE
Cosmos 2344 3.7 12:01:24 10° SSW 12:09:02 78° ESE 12:16:46 10° NE
CZ-4C R/B 3.8 12:06:01 10° SSW 12:09:19 33° W 12:12:39 10° NNW
PSLV R/B 3.5 12:05:27 10° NNE 12:09:40 87° ESE 12:13:51 10° SSW
Cosmos 1933 3.6 12:06:52 10° NNW 12:10:46 48° W 12:14:38 10° SSW
Cosmos 1680 Rocket 3.7 12:06:03 10° S 12:11:16 76° ESE 12:16:34 10° NNE
STARLINK-1068 4.0 12:08:01 10° SW 12:12:05 60° SE 12:16:11 10° NE
Landsat 5 4.2 12:11:26 10° SSW 12:15:39 39° W 12:19:52 10° NNW
Cosmos 2228 Rocket 3.8 12:12:12 10° N 12:16:42 61° E 12:21:12 10° SSE
Cosmos 923 Rocket 4.0 12:12:15 10° SSW 12:17:25 71° WNW 12:22:38 10° NNE
